BEIDOU-3 M10 (C24)

Last updated on Dec. 12, 2019, 4:25 a.m. UTC

1 43582U 18062B   19345.41197328  .00000005  00000-0  00000+0 0  9990
2 43582  54.6745 263.6239 0005718 336.5002 161.6318  1.86232197  9314
UTC
Height (km)
Latitude
Longitude
Inclination
Orbital Period
UTC large
Height (km)
Speed (km/s)
/
Latitude / Longitude
Inclination (degrees)
Orbital Period (minutes)
Azimuth
Elevation
Range (km)
Doppler Factor
iOS Compass Heading
iOS Angle

Next 30 passes for location: Hong Kong

Rise time Rise Azimuth (degrees) Set time Set Azimuth (degrees) Duration Max altitude (degrees)

No matching passes for this satellites